Weather History for Galax, VA

Change the Weather History Date:

Thursday, January 26, 2012

  Actual Average (KBLF) Record (KBLF)
Temperature  
Mean Temperature 52 °F 34 °F  
Max Temperature 57 °F 42 °F 68 °F (1967)
Min Temperature 46 °F 26 °F 4 °F (1982)
Degree Days  
Heating Degree Days 14 31  
Month to date heating degree days 806  
Since 1 July heating degree days 2571  
Cooling Degree Days 0 0  
Month to date cooling degree days 0  
Year to date cooling degree days 0  
Growing Degree Days 2 (Base 50)    
Moisture  
Dew Point 45 °F    
Average Humidity 79    
Maximum Humidity 100    
Minimum Humidity 66    
Precipitation  
Precipitation 0.05 in 0.09 in 0.91 in (2011)
Month to date precipitation 2.44  
Year to date precipitation 2.44  
Snow  
Snow 0.00 in - - ()
Month to date snowfall  
Since 1 July snowfall  
Snow Depth -    
Sea Level Pressure  
Sea Level Pressure 30.02 in    
Wind  
Wind Speed 10 mph (South)    
Max Wind Speed 18 mph    
Max Gust Speed 30 mph    
Visibility 8 miles    
Events Fog , Rain    
T = Trace of Precipitation, MM = Missing Value Source: NWS Daily Summary

Daily Weather History Graph

Daily Weather History Graph

Search for Another Location

Airport:

Trip Planner

Search our weather history database for the weather conditions in past years. The results will help you decide how hot, cold, wet, or windy it might be!

Date:

Astronomy

Jan. 26, 2012 Rise Set
Actual Time 7:30 AM EST 5:41 PM EST
Civil Twilight 7:02 AM EST 6:09 PM EST
Nautical Twilight 6:31 AM EST 6:40 PM EST
Astronomical Twilight 6:00 AM EST 7:11 PM EST
Moon 9:03 AM EST (1/26) 9:25 PM EST (1/26)
Length of Visible Light 11h 07m
Length of Day
10h 11m
Waxing Crescent, 12% of the Moon is Illuminated
Jan 26
Waxing Crescent
Jan 30
First Quarter
Feb 7
Full
Feb 14
Last Quarter
Feb 21
New

Hourly Weather History & Observations

Time (EST) Temp. Windchill Dew Point Humidity Pressure Visibility Wind Dir Wind Speed Gust Speed Precip Events Conditions
12:15 AM 46.4 °F 41.9 °F 35.6 °F 66% 30.18 in 10.0 mi South 9.2 mph - N/A   Scattered Clouds
12:35 AM 46.4 °F 42.4 °F 35.6 °F 66% 30.17 in 10.0 mi South 8.1 mph - N/A   Scattered Clouds
12:55 AM 46.4 °F 42.9 °F 35.6 °F 66% 30.17 in 10.0 mi South 6.9 mph - N/A   Scattered Clouds
1:15 AM 46.4 °F 42.9 °F 35.6 °F 66% 30.16 in 10.0 mi South 6.9 mph - N/A   Clear
1:35 AM 46.4 °F 41.9 °F 35.6 °F 66% 30.16 in 10.0 mi South 9.2 mph - N/A   Clear
1:55 AM 46.4 °F 41.9 °F 35.6 °F 66% 30.15 in 10.0 mi South 9.2 mph - N/A   Clear
2:15 AM 46.4 °F 41.9 °F 37.4 °F 71% 30.15 in 10.0 mi South 9.2 mph - N/A   Clear
2:35 AM 46.4 °F 43.5 °F 37.4 °F 71% 30.15 in 10.0 mi South 5.8 mph - N/A   Clear
2:55 AM 46.4 °F 42.4 °F 37.4 °F 71% 30.14 in 10.0 mi South 8.1 mph - N/A   Clear
3:15 AM 46.4 °F 41.5 °F 37.4 °F 71% 30.13 in 10.0 mi South 10.4 mph - N/A   Clear
3:35 AM 48.2 °F - 37.4 °F 66% 30.13 in 10.0 mi South 9.2 mph - N/A   Clear
3:55 AM 48.2 °F - 37.4 °F 66% 30.12 in 10.0 mi South 9.2 mph 16.1 mph N/A   Clear
4:15 AM 48.2 °F - 37.4 °F 66% 30.12 in 10.0 mi South 10.4 mph - N/A   Clear
4:35 AM 48.2 °F - 37.4 °F 66% 30.11 in 10.0 mi South 8.1 mph - N/A   Clear
4:55 AM 48.2 °F - 37.4 °F 66% 30.11 in 10.0 mi South 8.1 mph - N/A   Clear
5:15 AM 48.2 °F - 37.4 °F 66% 30.10 in 10.0 mi South 12.7 mph 16.1 mph N/A   Clear
5:35 AM 48.2 °F - 37.4 °F 66% 30.11 in 10.0 mi South 9.2 mph - N/A   Clear
5:55 AM 48.2 °F - 37.4 °F 66% 30.11 in 10.0 mi South 11.5 mph 16.1 mph N/A   Clear
6:15 AM 48.2 °F - 37.4 °F 66% 30.10 in 10.0 mi South 12.7 mph 19.6 mph N/A   Clear
6:35 AM 48.2 °F - 37.4 °F 66% 30.10 in 10.0 mi South 9.2 mph - N/A   Clear
6:55 AM 48.2 °F - 37.4 °F 66% 30.10 in 10.0 mi South 10.4 mph - N/A   Clear
7:15 AM 48.2 °F - 37.4 °F 66% 30.10 in 10.0 mi South 9.2 mph - N/A   Clear
7:35 AM 48.2 °F - 39.2 °F 71% 30.09 in 10.0 mi South 10.4 mph - N/A   Clear
7:55 AM 48.2 °F - 39.2 °F 71% 30.09 in 10.0 mi South 9.2 mph - N/A   Clear
8:15 AM 48.2 °F - 39.2 °F 71% 30.08 in 10.0 mi South 11.5 mph 17.3 mph N/A   Clear
8:35 AM 50.0 °F - 39.2 °F 66% 30.08 in 10.0 mi South 9.2 mph 17.3 mph N/A   Scattered Clouds
9:15 AM 51.8 °F - 44.6 °F 76% 30.08 in 10.0 mi South 8.1 mph 16.1 mph N/A   Mostly Cloudy
9:35 AM 53.6 °F - 46.4 °F 77% 30.09 in 10.0 mi South 8.1 mph - N/A   Mostly Cloudy
9:55 AM 53.6 °F - 46.4 °F 77% 30.08 in 10.0 mi South 8.1 mph - N/A   Overcast
10:15 AM 55.4 °F - 48.2 °F 77% 30.07 in 10.0 mi South 11.5 mph 18.4 mph N/A   Mostly Cloudy
10:35 AM 55.4 °F - 48.2 °F 77% 30.06 in 10.0 mi SSW 12.7 mph 20.7 mph N/A   Mostly Cloudy
10:55 AM 55.4 °F - 50.0 °F 82% 30.05 in 10.0 mi South 13.8 mph 21.9 mph N/A   Mostly Cloudy
11:15 AM 57.2 °F - 51.8 °F 82% 30.04 in 10.0 mi South 18.4 mph 25.3 mph N/A   Scattered Clouds
11:35 AM 57.2 °F - 51.8 °F 82% 30.02 in 10.0 mi SSW 18.4 mph 29.9 mph N/A   Scattered Clouds
11:55 AM 57.2 °F - 51.8 °F 82% 30.01 in 10.0 mi SSW 18.4 mph 28.8 mph N/A   Scattered Clouds
12:15 PM 57.2 °F - 51.8 °F 82% 30.00 in 10.0 mi South 17.3 mph 26.5 mph N/A   Scattered Clouds
12:35 PM 57.2 °F - 51.8 °F 82% 29.99 in 10.0 mi SSW 15.0 mph 23.0 mph N/A   Mostly Cloudy
12:55 PM 57.2 °F - 51.8 °F 82% 29.98 in 10.0 mi South 15.0 mph 20.7 mph N/A   Overcast
1:15 PM 55.4 °F - 51.8 °F 88% 29.97 in 10.0 mi South 10.4 mph 20.7 mph N/A   Overcast
1:35 PM 55.4 °F - 51.8 °F 88% 29.96 in 10.0 mi South 11.5 mph 18.4 mph N/A   Mostly Cloudy
1:55 PM 57.2 °F - 51.8 °F 82% 29.94 in 10.0 mi South 10.4 mph 16.1 mph N/A   Scattered Clouds
2:15 PM 57.2 °F - 51.8 °F 82% 29.94 in 10.0 mi South 12.7 mph 18.4 mph N/A   Mostly Cloudy
2:35 PM 57.2 °F - 51.8 °F 82% 29.93 in 10.0 mi South 16.1 mph 24.2 mph N/A   Mostly Cloudy
2:55 PM 57.2 °F - 51.8 °F 82% 29.92 in 10.0 mi South 12.7 mph 25.3 mph N/A   Scattered Clouds
3:15 PM 57.2 °F - 51.8 °F 82% 29.92 in 10.0 mi South 10.4 mph 21.9 mph N/A   Scattered Clouds
3:55 PM 55.4 °F - 51.8 °F 88% 29.92 in 10.0 mi South 10.4 mph 17.3 mph N/A   Scattered Clouds
4:15 PM 55.4 °F - 51.8 °F 88% 29.91 in 10.0 mi South 10.4 mph 17.3 mph N/A   Scattered Clouds
4:35 PM 53.6 °F - 50.0 °F 88% 29.91 in 10.0 mi South 12.7 mph 19.6 mph N/A   Scattered Clouds
4:55 PM 53.6 °F - 51.8 °F 94% 29.91 in 7.0 mi South 12.7 mph 21.9 mph N/A   Mostly Cloudy
5:15 PM 51.8 °F - 51.8 °F 100% 29.91 in 4.0 mi South 12.7 mph 17.3 mph N/A   Overcast
5:35 PM 51.8 °F - 51.8 °F 100% 29.91 in 4.0 mi South 6.9 mph 17.3 mph N/A   Overcast
5:55 PM 51.8 °F - 51.8 °F 100% 29.91 in 4.0 mi South 9.2 mph - N/A   Overcast
6:15 PM 53.6 °F - 51.8 °F 94% 29.90 in 0.8 mi South 9.2 mph - N/A   Overcast
6:35 PM 53.6 °F - 53.6 °F 100% 29.90 in 0.2 mi South 12.7 mph 16.1 mph N/A Fog Fog
6:55 PM 53.6 °F - 53.6 °F 100% 29.89 in 0.2 mi South 9.2 mph - N/A   Drizzle
7:15 PM 53.6 °F - 53.6 °F 100% 29.88 in 0.2 mi South 10.4 mph - N/A   Drizzle
7:55 PM 53.6 °F - 53.6 °F 100% 29.86 in 4.0 mi South 11.5 mph 17.3 mph N/A   Overcast
8:15 PM 53.6 °F - 53.6 °F 100% 29.84 in 1.0 mi South 10.4 mph 19.6 mph N/A   Overcast
8:35 PM 53.6 °F - 53.6 °F 100% 29.83 in 0.5 mi South 8.1 mph 20.7 mph N/A Fog Fog
8:55 PM 55.4 °F - 55.4 °F 100% 29.82 in 1.8 mi South 8.1 mph - N/A   Overcast
9:35 PM 55.4 °F - 55.4 °F 100% 29.78 in 3.0 mi SSE 9.2 mph 20.7 mph 0.05 in Rain Rain
9:55 PM 55.4 °F - 55.4 °F 100% 29.76 in 7.0 mi SSE 18.4 mph 24.2 mph N/A   Drizzle
10:15 PM 57.2 °F - 57.2 °F 100% 29.75 in 10.0 mi SSE 12.7 mph 25.3 mph 0.01 in   Light Drizzle
10:35 PM 57.2 °F - 57.2 °F 100% 29.74 in 7.0 mi South 12.7 mph 24.2 mph 0.02 in   Drizzle
10:55 PM 57.2 °F - 55.4 °F 94% 29.74 in 7.0 mi South 11.5 mph 21.9 mph 0.02 in Rain Light Rain
11:15 PM 55.4 °F - 55.4 °F 100% 29.71 in 10.0 mi South 12.7 mph 26.5 mph 0.03 in   Light Drizzle
11:35 PM 57.2 °F - 57.2 °F 100% 29.67 in 10.0 mi South 16.1 mph 27.6 mph 0.03 in Rain Light Rain
11:55 PM 57.2 °F - 57.2 °F 100% 29.68 in 10.0 mi SSW 18.4 mph 29.9 mph N/A   Light Drizzle